Wind_Speed
7 6 6 7 7 7 7 8 9 10 10 11 11 11 11 12 13 13 14 15 16 16 18 19 20 21 21 22 23 23 23 23 24 24 24 24 25 26
7 7 7 7 7 7 8 8 9 10 11 11 12 12 13 13 13 15 16 17 17 18 18 19 20 21 22 23 25 25 25 25 25 25 26 26 27 27
8 8 7 7 8 8 9 9 9 10 11 12 13 13 14 15 15 16 17 17 18 18 19 20 22 23 24 24 24 24 25 25 25 26 25 26 27 27
8 8 8 9 9 9 10 10 11 12 13 13 14 15 15 16 17 18 18 18 19 20 20 21 22 23 24 24 24 24 25 26 26 27 28 28 28 28
9 10 10 10 10 11 12 12 13 14 14 14 15 16 16 17 17 18 19 20 21 21 22 23 23 23 24 25 25 26 26 27 28 29 29 29 29 30
11 11 12 12 12 13 13 14 15 16 16 16 16 17 18 18 19 19 20 21 22 22 23 24 24 24 25 26 26 26 27 28 28 30 30 31 31 32
12 12 13 13 13 14 14 15 16 17 18 17 18 18 19 19 20 21 22 22 23 24 24 24 25 25 26 26 27 28 28 29 30 30 31 32 33 34
12 13 14 15 15 16 16 17 18 19 19 18 19 19 20 21 22 22 23 24 24 25 25 26 26 27 27 28 28 28 29 30 30 31 32 33 33 33
13 13 14 16 17 18 18 19 20 20 20 20 20 21 22 23 23 24 24 25 26 27 27 27 27 28 28 29 29 29 29 30 31 31 31 32 33 33
15 15 16 17 19 20 21 21 21 21 21 22 23 23 24 25 25 25 25 26 27 27 27 27 28 28 29 29 30 30 30 31 31 32 33 33 33 34
17 18 19 19 20 21 21 22 22 22 23 23 24 24 25 26 26 26 26 27 27 27 27 28 28 28 29 29 30 30 31 32 32 33 34 34 34 35
19 20 21 22 22 22 23 23 23 23 24 25 25 25 26 26 27 27 28 28 27 28 28 29 29 30 30 31 31 32 32 33 33 34 35 35 36 35
20 22 22 23 24 24 24 24 25 25 25 26 26 26 26 27 27 27 28 28 28 28 29 30 30 30 31 31 32 33 34 35 35 35 35 35 35 36
22 23 24 24 24 24 24 25 25 26 26 26 26 26 26 26 27 27 27 28 28 29 30 30 31 31 32 32 32 33 33 34 34 34 35 35 36 36
23 24 24 24 24 24 25 25 26 27 26 26 26 26 27 27 27 27 28 28 29 30 31 31 32 33 33 33 33 34 34 34 34 35 35 36 37 38
24 24 24 24 25 25 25 26 26 26 26 26 27 27 27 28 28 29 29 30 30 31 31 32 32 33 34 34 34 34 34 35 35 35 35 36 37 38
24 24 25 25 25 25 26 26 26 26 26 27 27 27 28 28 29 30 30 31 31 32 32 33 33 34 34 35 35 34 34 34 34 35 35 35 36 36
24 25 25 25 24 25 25 26 26 27 27 27 28 28 29 29 29 30 31 32 32 33 33 33 34 34 35 34 34 34 33 34 34 34 35 35 35 36
24 25 25 24 25 25 26 27 27 27 28 28 28 29 29 30 31 31 32 32 32 33 33 34 34 34 34 34 34 34 34 34 34 34 34 34 34 35
24 24 24 25 25 26 26 27 28 28 29 29 29 30 31 31 32 32 32 32 32 33 33 34 34 34 33 33 33 33 34 34 35 35 35 35 35 35
25 25 25 26 26 27 28 28 29 29 29 30 30 30 31 32 32 32 32 33 33 34 34 34 34 34 34 34 33 33 33 34 34 34 34 34 34 34
26 26 26 27 27 28 29 29 29 30 30 30 30 30 31 32 32 33 33 34 34 35 34 34 35 35 34 34 33 33 33 33 34 34 34 35 35 34
26 26 27 27 28 28 28 28 29 29 29 30 30 31 31 32 33 33 33 34 34 34 34 34 34 34 34 34 34 34 34 34 34 34 34 35 35 34
Wind_Direction
280 283 283 286 286 284 282 280 280 282 286 287 289 291 289 287 285 282 280 282 281 278 273 272 269 270 268 269 268 267 268 268 266 265 266 267 267 266
283 280 280 285 288 292 291 290 288 288 291 292 292 293 292 291 290 286 286 286 283 280 278 275 274 274 274 272 271 269 268 268 267 266 267 269 270 270
293 286 282 285 288 293 296 295 294 292 292 290 291 290 290 290 289 289 288 289 289 287 284 281 279 276 275 274 275 271 269 270 269 269 269 269 270 270
291 293 286 284 286 289 289 290 293 295 295 294 292 291 293 293 291 289 290 290 290 290 288 286 284 281 278 277 278 275 273 273 272 270 269 269 270 271
286 291 292 286 284 285 286 286 290 294 294 293 294 294 295 295 293 292 292 292 292 290 288 286 285 283 280 279 278 276 275 274 273 272 272 271 271 272
288 291 294 290 286 287 287 289 292 294 295 294 294 294 295 295 293 292 292 291 291 291 288 286 286 285 283 282 280 277 275 275 274 273 272 271 271 271
290 293 297 294 292 292 291 292 293 293 293 293 293 294 295 295 293 293 292 292 291 290 288 287 286 286 285 284 283 281 279 279 278 276 275 274 272 271
293 295 296 299 297 296 295 294 294 293 291 291 291 292 294 294 293 293 292 291 291 289 288 287 287 287 287 286 285 283 281 281 280 278 277 276 274 273
293 292 296 298 300 302 299 298 298 294 292 292 293 295 295 295 294 293 292 291 290 290 289 288 287 287 287 287 287 285 283 281 279 279 277 276 276 274
294 294 295 298 301 301 301 300 299 298 296 294 294 296 296 296 296 295 295 293 291 290 290 289 288 287 287 287 288 286 285 283 281 280 278 278 278 276
292 294 295 296 298 299 299 299 299 299 298 297 298 297 297 296 296 296 295 294 293 293 292 291 291 290 290 289 289 288 287 285 283 282 281 279 278 278
294 294 296 297 298 297 298 299 299 298 297 298 298 297 297 298 298 297 296 295 295 294 293 292 292 291 291 291 291 290 289 287 285 285 283 280 279 279
296 297 298 299 298 298 299 301 300 298 297 297 297 298 298 298 298 297 297 296 296 295 295 294 293 293 293 293 292 291 290 289 287 286 283 281 280 279
297 296 297 298 298 299 300 300 300 300 298 298 298 298 299 299 299 299 298 297 297 296 296 295 294 294 294 294 293 292 292 290 288 286 284 282 280 280
298 298 298 296 297 298 299 299 300 300 300 299 299 299 299 299 299 299 299 299 298 297 296 295 295 295 295 294 293 293 292 291 291 289 287 285 282 280
296 297 297 295 294 296 298 298 299 300 300 299 299 300 300 300 300 299 300 301 300 299 298 298 297 297 296 295 295 294 293 293 292 290 289 288 287 286
296 296 296 296 296 297 298 298 298 298 299 300 299 300 300 301 301 300 301 301 301 300 299 299 299 299 298 297 296 295 295 295 294 293 292 290 289 289
296 296 296 296 296 296 297 298 298 298 299 299 299 299 300 301 300 300 300 301 301 302 302 301 301 300 299 298 297 296 296 297 296 295 294 293 291 291
296 296 295 295 296 296 297 298 298 298 298 298 299 299 300 300 300 300 300 301 302 303 302 302 301 300 298 297 297 296 296 296 296 296 296 295 293 292
297 298 297 296 296 296 298 298 298 298 298 299 299 299 299 300 300 301 301 301 303 303 303 303 303 302 300 299 298 298 298 298 297 297 297 296 296 295
299 299 297 297 297 297 298 299 299 299 299 300 300 301 301 301 301 302 302 302 303 303 303 303 303 302 301 301 300 300 300 300 300 299 299 298 298 297
300 300 299 298 299 299 299 299 299 299 300 301 301 301 301 302 302 302 303 303 303 303 304 304 303 302 302 301 301 301 300 300 300 300 300 299 299 298
299 299 299 299 301 300 299 300 300 300 301 302 302 302 302 302 303 303 304 304 305 305 304 304 303 303 303 302 302 301 301 300 300 300 300 301 301 299
Height
5878 5877 5877 5876 5875 5874 5873 5872 5871 5870 5869 5868 5867 5866 5864 5863 5862 5860 5859 5858 5856 5855 5853 5852 5851 5851 5850 5849 5848 5847 5846 5845 5844 5844 5843 5842 5842 5841
5876 5875 5874 5873 5872 5871 5870 5869 5868 5868 5866 5865 5864 5863 5861 5860 5858 5857 5855 5854 5852 5850 5848 5847 5846 5845 5844 5843 5842 5840 5839 5839 5837 5837 5836 5835 5835 5834
5873 5872 5871 5871 5870 5869 5868 5867 5865 5864 5863 5862 5861 5859 5858 5856 5854 5853 5851 5849 5847 5845 5844 5842 5840 5839 5837 5836 5834 5833 5832 5831 5830 5829 5828 5828 5827 5826
5871 5870 5869 5868 5867 5866 5865 5864 5863 5861 5860 5858 5857 5855 5853 5851 5850 5848 5846 5844 5842 5840 5838 5836 5834 5833 5831 5829 5827 5826 5825 5824 5823 5822 5821 5820 5819 5818
5868 5867 5865 5864 5864 5863 5862 5860 5859 5858 5856 5854 5852 5851 5849 5847 5845 5843 5841 5839 5837 5835 5832 5830 5828 5826 5824 5822 5820 5819 5817 5816 5815 5813 5812 5812 5811 5810
5864 5863 5862 5861 5860 5859 5857 5856 5855 5853 5852 5850 5848 5846 5844 5842 5840 5837 5835 5833 5831 5828 5826 5824 5822 5819 5818 5816 5814 5811 5810 5808 5806 5805 5804 5803 5802 5801
5861 5860 5859 5857 5856 5855 5853 5852 5850 5849 5847 5845 5843 5841 5839 5836 5834 5831 5829 5827 5824 5822 5819 5817 5815 5813 5810 5808 5806 5804 5802 5800 5798 5796 5795 5794 5793 5792
5858 5856 5855 5854 5852 5850 5849 5847 5845 5844 5841 5839 5837 5835 5833 5831 5828 5825 5823 5820 5818 5815 5813 5810 5808 5805 5803 5800 5798 5795 5793 5791 5789 5787 5786 5784 5783 5782
5854 5853 5851 5850 5848 5846 5844 5842 5840 5838 5836 5834 5831 5829 5827 5824 5822 5819 5816 5813 5811 5808 5805 5803 5800 5797 5795 5792 5790 5787 5785 5782 5780 5778 5777 5775 5773 5771
5850 5849 5847 5845 5843 5841 5839 5837 5834 5832 5830 5827 5825 5823 5820 5817 5814 5812 5809 5806 5803 5800 5797 5795 5792 5789 5787 5784 5781 5778 5776 5773 5771 5769 5767 5765 5763 5761
5845 5844 5842 5840 5838 5836 5833 5831 5828 5826 5823 5821 5818 5815 5813 5810 5807 5804 5801 5798 5795 5792 5789 5786 5783 5781 5778 5775 5772 5769 5766 5764 5762 5759 5757 5755 5753 5751
5840 5838 5836 5834 5832 5829 5827 5825 5822 5819 5817 5814 5811 5808 5805 5802 5799 5796 5793 5790 5787 5784 5781 5778 5775 5772 5769 5766 5763 5760 5757 5754 5752 5749 5747 5744 5742 5741
5834 5832 5830 5827 5825 5823 5820 5818 5815 5812 5809 5806 5803 5801 5798 5795 5791 5788 5785 5782 5779 5776 5773 5770 5767 5764 5761 5758 5754 5751 5748 5745 5742 5739 5736 5734 5731 5729
5828 5825 5823 5821 5818 5816 5813 5810 5808 5805 5802 5799 5796 5793 5790 5787 5784 5781 5777 5774 5771 5768 5765 5762 5758 5755 5752 5748 5745 5741 5738 5734 5731 5728 5725 5722 5720 5717
5821 5819 5816 5814 5811 5809 5806 5803 5800 5797 5794 5792 5789 5786 5783 5780 5776 5773 5770 5766 5763 5759 5756 5753 5749 5746 5742 5739 5735 5731 5728 5724 5721 5718 5715 5711 5709 5706
5814 5812 5809 5807 5804 5801 5799 5796 5793 5790 5787 5784 5781 5778 5775 5772 5768 5765 5762 5758 5755 5751 5747 5743 5740 5736 5733 5729 5725 5722 5718 5714 5711 5707 5704 5701 5698 5695
5807 5805 5802 5800 5797 5794 5791 5789 5786 5783 5780 5777 5774 5770 5767 5764 5761 5757 5753 5750 5746 5742 5739 5734 5730 5726 5723 5719 5716 5712 5708 5704 5700 5697 5694 5690 5687 5684
5800 5797 5795 5792 5789 5787 5784 5781 5778 5776 5773 5769 5766 5763 5759 5756 5753 5749 5745 5741 5737 5733 5729 5725 5721 5717 5713 5709 5706 5702 5698 5694 5690 5687 5683 5680 5676 5673
5793 5790 5787 5784 5782 5779 5777 5774 5771 5768 5765 5762 5758 5755 5751 5748 5744 5740 5736 5732 5728 5724 5720 5716 5712 5707 5704 5700 5696 5692 5688 5684 5680 5676 5673 5669 5666 5662
5786 5783 5780 5777 5774 5772 5769 5766 5763 5760 5757 5753 5750 5746 5743 5739 5735 5731 5727 5723 5719 5715 5710 5706 5702 5698 5694 5690 5686 5682 5678 5674 5670 5666 5662 5659 5655 5651
5778 5776 5773 5770 5767 5764 5761 5758 5755 5751 5748 5744 5741 5737 5734 5730 5726 5722 5718 5713 5709 5705 5701 5697 5693 5688 5684 5680 5676 5672 5668 5664 5660 5656 5652 5649 5645 5641
5771 5768 5765 5762 5759 5756 5753 5750 5746 5743 5739 5736 5732 5728 5725 5720 5716 5712 5708 5704 5700 5696 5692 5687 5682 5678 5674 5670 5666 5662 5659 5654 5650 5646 5642 5638 5634 5630
5764 5761 5758 5754 5751 5748 5745 5741 5738 5734 5731 5727 5724 5720 5716 5711 5707 5703 5699 5695 5690 5686 5681 5677 5673 5668 5664 5660 5656 5652 5649 5645 5641 5637 5633 5628 5624 5620